When you browse on this site, cookies collect data to enhance your experience and personalize the content and advertising you see.
Visit our Privacy Policy to learn more. By continuing to use the site, you agree to this use of cookies and data.
  • en France
  • Liste des pays
  • À 7 jours
  • Température de l'eau
  • Carte météo
  • Widgets météo
  • user-avatar
    Se connecter

    Météo par heure à Thompson

    Ce jour, 5 Avril, Dimanche

    Heure Température Précipitation Vent Pression Humidité
    00:00 -16°C° 0 mm 2 m/s 745 mmHg 96%
    01:00 -17°C° 0 mm 2 m/s 745 mmHg 96%
    02:00 -18°C° 0 mm 2 m/s 745 mmHg 96%
    03:00 -18°C° 0 mm 2 m/s 745 mmHg 96%
    04:00 -19°C° 0 mm 2 m/s 745 mmHg 97%
    05:00 -19°C° 0 mm 2 m/s 746 mmHg 97%
    06:00 -15°C° 0 mm 1 m/s 746 mmHg 94%
    07:00 -12°C° 0 mm 1 m/s 746 mmHg 91%
    08:00 -10°C° 0 mm 1 m/s 746 mmHg 89%
    09:00 -8°C° 0 mm 1 m/s 746 mmHg 86%
    10:00 -6°C° 0 mm 1 m/s 746 mmHg 83%
    11:00 -4°C° 0 mm 1 m/s 746 mmHg 81%
    12:00 -3°C° 0 mm 1 m/s 747 mmHg 81%
    13:00 -3°C° 0 mm 1 m/s 747 mmHg 81%
    14:00 -3°C° 0 mm 1 m/s 747 mmHg 81%
    15:00 -3°C° 0 mm 1 m/s 747 mmHg 84%
    16:00 -5°C° 0 mm 2 m/s 747 mmHg 86%
    17:00 -6°C° 0 mm 2 m/s 747 mmHg 88%
    18:00 -8°C° 0 mm 2 m/s 747 mmHg 90%
    19:00 -9°C° 0 mm 1 m/s 747 mmHg 91%
    20:00 -11°C° 0 mm 1 m/s 747 mmHg 93%
    21:00 -11°C° 0 mm 1 m/s 747 mmHg 94%
    22:00 -12°C° 0 mm 1 m/s 747 mmHg 95%
    23:00 -13°C° 0 mm 1 m/s 747 mmHg 96%

    Demain, 6 Avril, Lundi

    Heure Température Précipitation Vent Pression Humidité
    00:00 -13°C° 0 mm 1 m/s 747 mmHg 96%
    01:00 -14°C° 0 mm 1 m/s 747 mmHg 96%
    02:00 -14°C° 0 mm 1 m/s 747 mmHg 96%
    03:00 -15°C° 0 mm 1 m/s 747 mmHg 96%
    04:00 -17°C° 0 mm 2 m/s 747 mmHg 97%
    05:00 -17°C° 0 mm 2 m/s 747 mmHg 98%
    06:00 -15°C° 0 mm 2 m/s 747 mmHg 97%
    07:00 -13°C° 0 mm 2 m/s 747 mmHg 95%
    08:00 -12°C° 0 mm 3 m/s 746 mmHg 94%
    09:00 -10°C° 0 mm 3 m/s 746 mmHg 93%
    10:00 -9°C° 0 mm 3 m/s 745 mmHg 92%
    11:00 -7°C° 0 mm 3 m/s 745 mmHg 90%
    12:00 -7°C° 0 mm 4 m/s 744 mmHg 90%
    13:00 -7°C° 0 mm 4 m/s 743 mmHg 91%
    14:00 -5°C° 0 mm 4 m/s 742 mmHg 91%
    15:00 -5°C° 0 mm 4 m/s 742 mmHg 91%
    16:00 -5°C° 0 mm 4 m/s 741 mmHg 91%
    17:00 -7°C° 0 mm 5 m/s 740 mmHg 92%
    18:00 -7°C° 0 mm 5 m/s 740 mmHg 92%
    19:00 -7°C° 0 mm 5 m/s 739 mmHg 93%
    20:00 -7°C° 0 mm 5 m/s 738 mmHg 93%
    21:00 -8°C° 0.1 mm 6 m/s 738 mmHg 93%
    22:00 -8°C° 0.1 mm 6 m/s 737 mmHg 92%
    23:00 -8°C° 0.1 mm 6 m/s 736 mmHg 92%

    Après-demain, 7 Avril, Mardi

    Heure Température Précipitation Vent Pression Humidité
    00:00 -8°C° 0.2 mm 6 m/s 735 mmHg 92%
    01:00 -8°C° 0.2 mm 6 m/s 734 mmHg 92%
    02:00 -8°C° 0.2 mm 6 m/s 733 mmHg 93%
    03:00 -8°C° 1.1 mm 6 m/s 732 mmHg 94%
    04:00 -8°C° 1.1 mm 6 m/s 731 mmHg 94%
    05:00 -7°C° 1.1 mm 5 m/s 730 mmHg 95%
    06:00 -6°C° 1.5 mm 5 m/s 730 mmHg 96%
    07:00 -6°C° 1.5 mm 5 m/s 729 mmHg 96%
    08:00 -5°C° 1.5 mm 5 m/s 729 mmHg 96%
    09:00 -4°C° 0.7 mm 5 m/s 729 mmHg 97%
    10:00 -4°C° 0.7 mm 5 m/s 729 mmHg 98%
    11:00 -2°C° 0.7 mm 4 m/s 729 mmHg 99%
    12:00 -2°C° 0.2 mm 4 m/s 729 mmHg 99%
    13:00 -1°C° 0.2 mm 3 m/s 729 mmHg 99%
    14:00 -1°C° 0.2 mm 2 m/s 729 mmHg 99%
    15:00 -1°C° 0.2 mm 2 m/s 729 mmHg 99%
    16:00 -1°C° 0.2 mm 2 m/s 729 mmHg 99%
    17:00 -1°C° 0.2 mm 2 m/s 729 mmHg 99%
    18:00 -1°C° 0 mm 2 m/s 729 mmHg 97%
    19:00 -2°C° 0 mm 2 m/s 730 mmHg 96%
    20:00 -1°C° 0 mm 1 m/s 730 mmHg 94%
    21:00 -3°C° 0 mm 2 m/s 730 mmHg 94%
    22:00 -4°C° 0 mm 2 m/s 730 mmHg 95%
    23:00 -5°C° 0 mm 2 m/s 730 mmHg 95%

    8 Avril, Mercredi

    Heure Température Précipitation Vent Pression Humidité
    00:00 -6°C° 0 mm 2 m/s 730 mmHg 95%
    01:00 -7°C° 0 mm 2 m/s 730 mmHg 95%
    02:00 -9°C° 0 mm 2 m/s 730 mmHg 95%
    03:00 -8°C° 0 mm 1 m/s 731 mmHg 96%
    04:00 -9°C° 0 mm 1 m/s 731 mmHg 96%
    05:00 -10°C° 0 mm 1 m/s 731 mmHg 96%
    06:00 -7°C° 0 mm 1 m/s 731 mmHg 95%
    07:00 -6°C° 0 mm 2 m/s 731 mmHg 95%
    08:00 -4°C° 0 mm 2 m/s 732 mmHg 94%
    09:00 -3°C° 0 mm 2 m/s 732 mmHg 94%
    10:00 -3°C° 0 mm 2 m/s 732 mmHg 94%
    11:00 -2°C° 0 mm 2 m/s 733 mmHg 94%
    12:00 -2°C° 0.1 mm 2 m/s 733 mmHg 95%
    13:00 -1°C° 0.1 mm 2 m/s 734 mmHg 97%
    14:00 -1°C° 0.1 mm 2 m/s 734 mmHg 98%
    15:00 -1°C° 0.2 mm 3 m/s 734 mmHg 96%
    16:00 -2°C° 0.2 mm 3 m/s 735 mmHg 95%
    17:00 -3°C° 0.2 mm 4 m/s 735 mmHg 93%
    18:00 -5°C° 0.1 mm 4 m/s 735 mmHg 93%
    19:00 -6°C° 0.1 mm 3 m/s 736 mmHg 94%
    20:00 -7°C° 0.1 mm 3 m/s 736 mmHg 94%
    21:00 -8°C° 0.1 mm 3 m/s 737 mmHg 94%
    22:00 -9°C° 0.1 mm 3 m/s 737 mmHg 94%
    23:00 -10°C° 0.1 mm 3 m/s 737 mmHg 94%

    9 Avril, Jeudi

    Heure Température Précipitation Vent Pression Humidité
    00:00 -12°C° 0.1 mm 3 m/s 738 mmHg 94%
    01:00 -13°C° 0.1 mm 3 m/s 738 mmHg 94%
    02:00 -13°C° 0.1 mm 3 m/s 738 mmHg 94%
    03:00 -14°C° 0.1 mm 3 m/s 739 mmHg 94%
    04:00 -15°C° 0.1 mm 3 m/s 740 mmHg 93%
    05:00 -15°C° 0.1 mm 3 m/s 741 mmHg 93%
    06:00 -15°C° 0 mm 3 m/s 741 mmHg 92%
    07:00 -14°C° 0 mm 3 m/s 742 mmHg 91%
    08:00 -14°C° 0 mm 3 m/s 742 mmHg 90%
    09:00 -10°C° 0 mm 2 m/s 742 mmHg 87%
    10:00 -8°C° 0 mm 2 m/s 743 mmHg 84%
    11:00 -7°C° 0 mm 2 m/s 743 mmHg 81%
    12:00 -6°C° 0 mm 2 m/s 743 mmHg 82%
    13:00 -5°C° 0 mm 2 m/s 743 mmHg 83%
    14:00 -4°C° 0 mm 2 m/s 743 mmHg 83%
    15:00 -4°C° 0 mm 2 m/s 743 mmHg 84%
    16:00 -3°C° 0 mm 1 m/s 743 mmHg 86%
    17:00 -3°C° 0 mm 1 m/s 743 mmHg 87%
    18:00 -6°C° 0 mm 1 m/s 742 mmHg 89%
    19:00 -8°C° 0 mm 1 m/s 742 mmHg 91%
    20:00 -10°C° 0 mm 0 m/s 742 mmHg 93%
    21:00 -10°C° 0 mm 0 m/s 742 mmHg 94%
    22:00 -11°C° 0 mm 0 m/s 742 mmHg 95%
    23:00 -12°C° 0 mm 1 m/s 742 mmHg 96%

    10 Avril, Vendredi

    Heure Température Précipitation Vent Pression Humidité
    00:00 -11°C° 0 mm 1 m/s 742 mmHg 96%
    01:00 -11°C° 0 mm 1 m/s 741 mmHg 96%
    02:00 -11°C° 0 mm 1 m/s 741 mmHg 97%
    03:00 -11°C° 0 mm 1 m/s 741 mmHg 97%
    04:00 -10°C° 0 mm 1 m/s 741 mmHg 97%
    05:00 -10°C° 0 mm 1 m/s 741 mmHg 97%
    06:00 -9°C° 0 mm 1 m/s 741 mmHg 96%
    07:00 -8°C° 0 mm 1 m/s 741 mmHg 95%
    08:00 -8°C° 0 mm 2 m/s 740 mmHg 95%
    09:00 -7°C° 0 mm 2 m/s 740 mmHg 93%
    10:00 -6°C° 0 mm 2 m/s 740 mmHg 92%
    11:00 -5°C° 0 mm 2 m/s 740 mmHg 90%
    12:00 -5°C° 0.1 mm 2 m/s 740 mmHg 89%
    13:00 -4°C° 0.1 mm 2 m/s 740 mmHg 88%
    14:00 -4°C° 0.1 mm 2 m/s 740 mmHg 87%
    15:00 -4°C° 0 mm 2 m/s 741 mmHg 88%
    16:00 -5°C° 0 mm 2 m/s 741 mmHg 89%
    17:00 -5°C° 0 mm 2 m/s 741 mmHg 89%
    18:00 -7°C° 0 mm 2 m/s 741 mmHg 91%
    19:00 -9°C° 0 mm 2 m/s 741 mmHg 93%
    20:00 -12°C° 0 mm 2 m/s 742 mmHg 95%
    21:00 -11°C° 0 mm 1 m/s 742 mmHg 95%
    22:00 -12°C° 0 mm 1 m/s 742 mmHg 95%
    23:00 -13°C° 0 mm 1 m/s 742 mmHg 95%
    Voir plus